SCP
0 0 0 0 0 0 0 0 -0 0 0 0 0 0 0 0 0 0 0 0 0 0 0 0 0 0 0 0 0 0 0 0 -0 0 0 -0 0 0 0 0 0 0 0 -0
0 0 0 0 0 0 0 0 0 0 0 0 0 0 0 0 0 0 0 0 0 0 0 0 0 0 0 0 0 0 0 0 0 0 0 0 0 0 0 0 -0 0 0 0
0 0 0 0 0 0 0 0 0 0 0 0 0 0 0 0 0 0 0 0 0 0 0 0 0 0 0 0 0 -0 0 0 0 0 0 0 0 -0 -0 0 0 0 -0 -0
0 0 0 0 0 0 0 0 0 0 0 0 0 0 0 0 0 0 0 0 0 -0 0 -0 0 0 0 0 -0 0 0 0 0 0 0 0 0 0 -0 -0 0 0 -0 -0
0 0 0 0 0 0 0 0 0 0 0 0 0 0 0 0 0 0 0 0 0 0 0 0 -0 -0 0 0 0 0 0 0 0 -0 -0 -0 -0 -0 -0 0 -0 0 -0 -0
0 0 0 0 0 0 0 0 0 0 0 0 0 0 0 0 0 0 0 -0 -0 -0 -0 0 0 0 0 0 0 0 0 0 0 0 0 -0 0 -0 -0 0 -0 -0 -0 -0
0 0 0 0 0 0 0 0 0 0 0 0 0 0 0 0 0 0 -0 -0 0 0 -0 -0 0 0 0 0 0 0 0 0 0 0 0 0 0 0 -0 -0 -0 -0 -0 -0
0 0 0 0 0 0 0 0 0 0 0 0 0 0 0 0 0 0 -0 -0 0 0 0 0 0 0 0 0 0 0 0 0 0 0 0 -0 0 0 -0 -0 -0 0 -0 0
0 0 0 0 0 0 0 0 0 0 0 0 0 0 0 0 0 0 0 0 0 0 0 0 0 0 0 0 0 0 0 0 0 0 0 0 0 -0 0 0 0 0 0 0
0 0 0 0 0 0 0 0 0 0 0 0 0 0 0 0 0 0 0 0 0 0 0 0 0 0 0 0 0 0 0 0 0 0 0 0 0 -0 -0 0 0 0 0 0
0 0 0 0 0 0 0 0 0 0 0 0 0 0 0 0 0 0 0 0 0 0 -0 0 0 0 0 0 0 0 0 0 0 0 0 0 0 0 0 0 0 -0 -0 -0
0 0 0 0 0 0 0 0 0 0 0 0 0 0 0 -0 -0 0 0 0 0 0 0 0 0 0 0 0 0 0 0 0 0 0 0 0 0 0 0 0 0 0 0 0
0 0 0 0 0 0 0 0 0 0 0 0 0 0 0 0 -0 0 0 0 0 0 0 0 0 0 0 0 0 0 0 0 0 0 0 0 0 0 0 0 0 0 0 0
0 0 0 0 0 0 0 0 0 0 0 0 0 0 0 0 0 0 -0 0 0 0 0 0 0 0 0 0 0 0 0 0 0 0 0 0 0 0 0 0 0 0 0 0
0 0 0 0 0 0 0 0 0 0 0 0 0 0 0 0 0 0 0 0 0 0 0 0 0 0 0 0 0 0 0 0 0 0 0 0 0 0 0 0 0 0 0 0
0 0 0 0 0 0 0 0 0 0 0 0 0 0 0 0 -0 -0 0 0 0 0 0 0 0 -0 0 0 0 0 0 0 0 0 0 0 0 0 0 0 0 0 0 0
0 0 0 0 0 0 0 0 0 0 0 0 0 0 0 0 -0 0 -0 -0 -0 -0 0 -0 0 -0 0 0 0 0 0 0 0 0 0 0 0 0 0 0 0 0 0 0
0 0 0 0 0 0 0 0 0 0 0 0 0 0 0 0 0 -0 0 -0 -0 -0 -0 -0 0 0 0 0 0 -0 -0 0 0 0 0 0 0 0 0 0 0 0 0 0
0 0 0 0 0 0 0 0 0 0 0 0 0 0 0 0 0 -0 0 -0 -0 -0 -0 -0 -0 0 0 0 -0 -0 -0 0 0 -0 0 0 0 0 0 0 0 0 0 0
0 0 0 0 0 0 0 0 0 0 0 0 0 0 0 0 0 -0 -0 -0 -0 -0 -0 -0 0 0 0 0 0 0 0 0 0 0 0 0 0 0 0 0 0 0 0 0
0 0 0 0 0 0 0 0 0 0 0 0 0 0 0 0 0 -0 -0 -0 -0 -0 -0 -0 0 0 0 0 0 0 0 0 0 0 0 0 -0 -0 -0 0 0 0 0 0
0 0 0 0 0 0 0 0 0 0 0 0 0 0 0 0 0 -0 -0 -0 -0 -0 -0 -0 0 0 0 0 0 0 0 0 0 0 0 0 0 -0 -0 0 0 0 0 0
0 0 0 0 0 0 0 0 0 0 0 0 0 0 0 0 0 -0 -0 0 -0 -0 -0 -0 0 0 0 0 0 0 0 0 0 0 0 0 0 0 -0 0 0 0 0 0
0 0 0 0 0 0 0 0 0 0 0 0 0 0 0 0 0 -0 -0 0 0 -0 -0 0 -0 0 0 0 0 0 0 0 0 0 0 0 0 0 0 0 0 0 0 0
0 0 0 0 0 0 0 0 0 0 0 0 0 0 0 0 0 0 0 0 0 0 0 0 -0 0 0 0 0 0 0 0 0 0 0 0 0 0 0 0 0 0 0 -0
0 0 0 0 0 0 0 0 0 0 0 0 0 0 0 0 0 0 -0 0 0 0 0 -0 -0 0 0 0 0 0 -0 -0 -0 -0 -0 -0 -0 -0 0 0 -0 -0 -0 -0
0 0 0 0 0 0 0 0 0 0 0 0 0 0 0 0 0 0 0 0 0 0 0 -0 0 0 0 -0 0 0 -0 -0 -0 -0 -0 0 -0 -0 -0 -0 -0 0 0 0
Wind_Speed_500mb
79 77 78 80 83 82 74 35 6 30 28 12 8 6 16 17 13 23 10 12 17 13 12 12 13 14 11 7 23 13 9 10 16 35 40 33 27 29 30 12 10 16 20 29
80 74 76 76 74 69 68 28 13 19 21 7 9 14 11 10 15 24 12 12 7 17 15 13 16 22 14 22 14 8 4 7 14 12 5 7 11 17 32 12 4 17 12 5
80 70 75 73 67 60 49 18 9 12 19 11 8 12 7 18 23 21 12 23 20 15 13 21 20 34 19 15 27 46 35 12 24 23 31 15 26 35 28 25 15 29 41 40
75 68 71 68 61 52 35 19 6 6 11 8 19 10 8 21 18 9 25 9 13 18 14 39 15 18 26 32 45 16 10 14 25 34 46 43 39 43 46 45 43 33 50 42
71 67 68 63 56 48 21 12 11 9 14 19 18 5 5 20 19 15 17 16 32 32 23 31 55 39 24 12 12 6 4 11 22 38 44 42 39 47 42 42 46 49 51 60
67 64 66 56 49 41 18 20 10 3 8 11 10 5 11 19 36 22 28 32 37 43 38 42 62 71 65 27 11 5 6 7 9 16 18 28 19 11 9 11 32 36 45 53
61 59 60 50 36 31 26 21 15 6 7 8 10 19 33 28 33 29 49 46 17 22 71 77 43 24 21 23 17 26 7 7 6 15 18 8 9 29 28 26 29 24 38 45
57 55 56 44 30 21 18 16 10 4 9 16 27 18 25 35 36 35 40 45 35 54 40 11 14 5 4 3 6 8 14 9 8 7 13 28 10 29 28 19 41 24 31 26
52 52 51 38 29 20 13 12 3 5 9 8 11 24 20 13 14 16 13 32 44 17 5 5 9 8 10 8 15 12 20 7 5 6 9 9 20 52 70 44 8 26 32 27
45 49 47 38 26 15 11 11 12 5 12 16 10 9 12 12 11 9 20 21 16 18 6 5 6 7 7 9 16 15 13 6 9 12 8 8 36 55 64 11 16 40 45 31
45 44 43 34 24 15 11 14 16 12 14 39 28 19 25 20 17 6 20 19 2 7 9 5 8 6 8 8 7 12 9 14 8 9 8 12 55 41 19 16 35 41 42 31
46 43 39 29 28 15 12 13 11 18 27 40 60 52 43 46 42 31 10 11 11 8 5 5 6 6 7 11 8 9 6 5 9 7 8 19 52 31 37 26 34 43 45 40
43 43 36 26 26 17 17 17 17 22 22 43 17 8 6 26 22 20 16 13 9 8 9 5 3 7 3 7 7 9 6 8 6 11 4 25 43 48 43 49 52 58 65 59
39 38 29 24 22 19 16 19 17 14 12 10 17 26 30 20 20 26 38 47 32 28 28 5 3 5 1 4 7 6 7 18 16 8 10 23 50 52 48 53 60 68 75 71
36 33 24 23 19 17 18 24 18 17 9 9 31 42 4 9 21 30 31 30 36 16 7 5 3 5 7 4 4 4 15 9 8 7 30 22 31 46 53 59 63 68 76 80
33 25 24 19 16 14 10 2 8 8 10 9 8 20 10 12 15 9 9 13 20 14 6 2 1 3 6 5 6 6 35 38 24 9 31 22 29 45 55 69 72 80 83 82
27 21 21 17 15 15 9 6 8 4 3 6 12 14 13 19 15 7 5 6 8 8 5 3 3 8 6 3 5 27 37 39 30 15 13 32 50 34 56 71 75 85 92 94
20 20 19 16 14 15 10 10 13 12 10 9 6 9 14 8 6 5 6 6 7 3 4 2 5 6 6 2 11 22 27 18 27 31 36 40 41 49 58 68 72 81 80 79
24 21 16 13 14 13 17 13 6 11 13 7 6 6 6 10 5 6 4 4 4 3 2 2 3 4 5 10 22 16 20 14 19 27 33 39 42 47 52 61 62 71 71 75
27 20 12 11 11 18 13 5 8 16 11 14 10 9 8 7 4 3 3 3 3 1 2 6 4 1 6 17 5 10 15 17 21 23 27 30 37 45 48 54 60 63 63 63
31 19 12 15 24 18 10 8 10 13 8 14 15 20 11 9 6 4 4 4 2 3 3 0 2 4 7 17 9 17 19 15 27 26 24 28 34 41 43 40 43 47 52 53
32 15 18 20 14 9 7 8 8 8 8 12 10 10 15 9 10 6 4 4 2 2 5 2 3 4 17 15 23 24 24 20 19 21 27 27 32 36 41 41 44 47 48 47
26 14 11 11 11 9 12 16 8 8 11 13 8 5 6 6 10 7 2 5 3 4 2 3 2 9 14 15 21 20 19 18 20 23 26 31 37 39 39 41 39 40 40 41
13 14 11 12 11 13 12 11 7 11 9 9 5 6 5 4 6 4 5 1 4 2 2 4 3 1 17 15 14 17 11 6 15 19 26 31 34 37 36 34 34 33 35 35
12 12 11 15 14 10 11 18 6 10 8 3 3 4 3 4 5 4 3 5 1 3 3 5 19 9 15 15 16 18 10 14 18 21 25 31 32 32 32 27 26 26 31 33
10 12 7 8 9 10 10 15 11 13 9 2 3 2 3 4 3 5 5 2 4 4 8 21 28 22 18 16 15 16 16 19 18 23 28 31 30 29 29 26 22 23 25 27
9 12 22 14 5 11 12 16 13 17 7 3 3 4 1 4 5 4 2 1 3 6 15 45 35 31 23 22 20 19 21 21 21 24 27 26 25 24 26 29 30 31 29 28
Wind_Direction_500mb
345 345 347 349 348 349 354 355 340 346 359 41 37 353 321 311 303 343 302 289 273 269 297 287 301 264 243 256 307 274 260 279 276 274 270 266 266 261 249 249 214 235 262 270
343 345 345 349 350 352 351 346 311 345 16 44 1 330 317 297 317 332 327 304 301 304 294 295 266 274 278 292 287 262 215 242 292 291 158 127 213 247 240 251 235 233 256 226
340 343 342 347 350 354 353 353 340 351 50 97 13 341 327 336 318 305 301 289 291 302 286 278 280 280 296 294 277 262 254 214 228 255 271 286 276 281 271 240 257 277 256 266
337 338 339 345 347 355 4 13 52 5 331 355 335 318 286 329 350 295 304 277 242 320 294 307 252 287 287 272 278 280 229 271 262 260 274 279 270 267 267 259 257 250 272 279
332 333 338 341 346 357 11 16 2 348 300 305 314 340 314 317 328 296 298 255 301 309 278 272 289 295 300 278 300 241 249 272 296 281 272 264 266 266 263 252 254 253 255 262
330 332 335 337 346 360 27 17 343 336 298 318 310 327 331 306 317 292 264 289 307 299 294 299 289 285 278 252 260 285 270 268 279 278 317 305 265 299 290 257 257 255 248 254
326 327 331 335 348 359 18 13 10 357 287 280 296 298 301 295 299 275 282 293 278 282 310 307 292 263 245 242 238 212 259 273 250 292 321 273 97 27 346 316 297 319 247 258
320 322 329 330 339 346 9 357 354 330 292 290 294 305 297 303 297 278 278 291 284 304 310 313 326 343 249 242 343 224 238 279 281 285 285 282 36 353 330 341 313 348 327 336
314 318 324 321 325 338 347 331 332 290 296 256 287 307 299 309 326 321 275 315 329 324 292 330 335 338 313 326 317 234 303 252 271 296 287 293 8 344 329 318 201 349 328 311
310 312 319 317 323 322 330 303 299 266 270 278 286 280 302 293 298 273 297 335 324 351 324 318 330 310 323 321 317 336 322 324 296 302 279 284 5 335 319 9 322 314 306 298
298 307 315 309 312 290 298 298 302 266 259 286 262 262 259 276 267 267 315 329 3 303 349 344 346 308 338 295 283 340 319 330 333 318 315 338 348 329 353 304 308 321 328 321
293 302 308 299 303 294 266 283 292 288 271 273 294 283 268 257 269 274 288 260 297 270 314 350 305 310 316 312 321 5 344 358 307 328 324 307 317 318 345 346 347 354 357 31
288 300 299 289 299 294 261 267 282 299 288 310 288 261 308 312 294 274 232 265 249 257 280 300 278 288 325 320 348 306 297 32 270 304 22 322 337 2 3 7 19 26 40 59
283 290 286 286 293 298 279 269 269 261 291 287 282 309 304 300 292 281 282 278 266 282 299 270 277 278 60 318 315 313 322 315 314 272 309 333 1 9 16 31 38 46 58 64
278 282 270 277 286 291 284 288 277 241 237 289 294 310 180 305 304 307 300 293 272 273 254 228 262 319 334 337 259 25 332 326 347 320 321 357 4 18 30 45 44 53 65 67
263 261 259 271 276 273 305 293 226 215 247 291 297 305 267 331 341 326 318 300 265 243 249 260 75 348 333 330 335 293 340 338 338 291 336 24 35 41 50 55 56 63 67 73
247 244 257 259 255 254 228 179 163 239 295 262 289 287 283 321 329 322 297 296 260 275 292 343 130 22 8 21 355 318 338 353 19 18 355 45 51 45 61 68 68 76 80 83
226 234 245 245 236 257 262 170 203 213 245 255 273 278 299 325 304 313 332 314 289 285 354 48 25 15 346 12 324 349 356 23 57 68 81 85 79 83 81 82 80 77 76 83
208 220 226 221 233 227 186 187 233 251 220 269 248 271 286 317 285 285 292 283 266 320 147 64 101 1 24 298 326 2 18 57 82 88 90 92 83 85 87 87 82 85 86 92
195 192 179 223 199 158 161 208 203 189 214 229 250 246 265 296 301 258 275 249 258 213 78 108 59 174 305 356 7 79 54 91 102 80 79 95 92 103 100 96 94 98 99 99
177 178 207 180 157 167 183 204 210 183 223 217 230 230 265 269 237 292 226 300 317 262 116 110 117 22 55 12 108 107 96 110 101 96 101 104 105 113 110 102 99 98 99 98
174 173 154 165 188 185 205 199 199 213 236 207 205 233 226 264 226 248 214 275 332 274 121 122 87 74 51 40 129 118 100 102 98 101 97 100 105 110 110 108 105 104 102 104
157 184 173 197 177 181 207 200 191 207 204 199 198 261 233 233 226 242 241 266 262 235 62 73 94 68 114 100 135 129 110 79 98 96 100 110 114 116 114 110 107 104 103 105
171 163 201 220 191 210 192 203 185 199 183 175 205 257 245 231 227 207 236 198 150 240 176 83 190 270 159 147 161 175 161 101 129 118 116 119 120 119 118 119 120 119 114 113
176 180 225 213 218 210 201 209 237 195 181 187 217 215 240 243 256 222 310 215 357 329 61 176 181 236 174 176 186 193 173 146 134 133 133 132 130 127 123 122 124 127 128 128
210 215 234 235 198 195 190 193 201 181 180 166 140 154 217 245 259 232 223 256 124 176 145 165 177 167 176 170 146 152 160 154 144 141 142 140 137 133 130 127 127 130 129 129
216 227 216 208 244 177 164 190 187 175 172 186 165 205 185 301 244 221 185 350 101 167 169 184 186 181 151 163 159 152 163 163 155 147 146 146 145 140 136 133 131 131 129 125
Wind_Speed_850mb
79 77 78 80 83 82 74 35 6 30 28 12 8 6 16 17 13 23 10 12 17 13 12 12 13 14 11 7 23 13 9 10 16 35 40 33 27 29 30 12 10 16 20 29
80 74 76 76 74 69 68 28 13 19 21 7 9 14 11 10 15 24 12 12 7 17 15 13 16 22 14 22 14 8 4 7 14 12 5 7 11 17 32 12 4 17 12 5
80 70 75 73 67 60 49 18 9 12 19 11 8 12 7 18 23 21 12 23 20 15 13 21 20 34 19 15 27 46 35 12 24 23 31 15 26 35 28 25 15 29 41 40
75 68 71 68 61 52 35 19 6 6 11 8 19 10 8 21 18 9 25 9 13 18 14 39 15 18 26 32 45 16 10 14 25 34 46 43 39 43 46 45 43 33 50 42
71 67 68 63 56 48 21 12 11 9 14 19 18 5 5 20 19 15 17 16 32 32 23 31 55 39 24 12 12 6 4 11 22 38 44 42 39 47 42 42 46 49 51 60
67 64 66 56 49 41 18 20 10 3 8 11 10 5 11 19 36 22 28 32 37 43 38 42 62 71 65 27 11 5 6 7 9 16 18 28 19 11 9 11 32 36 45 53
61 59 60 50 36 31 26 21 15 6 7 8 10 19 33 28 33 29 49 46 17 22 71 77 43 24 21 23 17 26 7 7 6 15 18 8 9 29 28 26 29 24 38 45
57 55 56 44 30 21 18 16 10 4 9 16 27 18 25 35 36 35 40 45 35 54 40 11 14 5 4 3 6 8 14 9 8 7 13 28 10 29 28 19 41 24 31 26
52 52 51 38 29 20 13 12 3 5 9 8 11 24 20 13 14 16 13 32 44 17 5 5 9 8 10 8 15 12 20 7 5 6 9 9 20 52 70 44 8 26 32 27
45 49 47 38 26 15 11 11 12 5 12 16 10 9 12 12 11 9 20 21 16 18 6 5 6 7 7 9 16 15 13 6 9 12 8 8 36 55 64 11 16 40 45 31
45 44 43 34 24 15 11 14 16 12 14 39 28 19 25 20 17 6 20 19 2 7 9 5 8 6 8 8 7 12 9 14 8 9 8 12 55 41 19 16 35 41 42 31
46 43 39 29 28 15 12 13 11 18 27 40 60 52 43 46 42 31 10 11 11 8 5 5 6 6 7 11 8 9 6 5 9 7 8 19 52 31 37 26 34 43 45 40
43 43 36 26 26 17 17 17 17 22 22 43 17 8 6 26 22 20 16 13 9 8 9 5 3 7 3 7 7 9 6 8 6 11 4 25 43 48 43 49 52 58 65 59
39 38 29 24 22 19 16 19 17 14 12 10 17 26 30 20 20 26 38 47 32 28 28 5 3 5 1 4 7 6 7 18 16 8 10 23 50 52 48 53 60 68 75 71
36 33 24 23 19 17 18 24 18 17 9 9 31 42 4 9 21 30 31 30 36 16 7 5 3 5 7 4 4 4 15 9 8 7 30 22 31 46 53 59 63 68 76 80
33 25 24 19 16 14 10 2 8 8 10 9 8 20 10 12 15 9 9 13 20 14 6 2 1 3 6 5 6 6 35 38 24 9 31 22 29 45 55 69 72 80 83 82
27 21 21 17 15 15 9 6 8 4 3 6 12 14 13 19 15 7 5 6 8 8 5 3 3 8 6 3 5 27 37 39 30 15 13 32 50 34 56 71 75 85 92 94
20 20 19 16 14 15 10 10 13 12 10 9 6 9 14 8 6 5 6 6 7 3 4 2 5 6 6 2 11 22 27 18 27 31 36 40 41 49 58 68 72 81 80 79
24 21 16 13 14 13 17 13 6 11 13 7 6 6 6 10 5 6 4 4 4 3 2 2 3 4 5 10 22 16 20 14 19 27 33 39 42 47 52 61 62 71 71 75
27 20 12 11 11 18 13 5 8 16 11 14 10 9 8 7 4 3 3 3 3 1 2 6 4 1 6 17 5 10 15 17 21 23 27 30 37 45 48 54 60 63 63 63
31 19 12 15 24 18 10 8 10 13 8 14 15 20 11 9 6 4 4 4 2 3 3 0 2 4 7 17 9 17 19 15 27 26 24 28 34 41 43 40 43 47 52 53
32 15 18 20 14 9 7 8 8 8 8 12 10 10 15 9 10 6 4 4 2 2 5 2 3 4 17 15 23 24 24 20 19 21 27 27 32 36 41 41 44 47 48 47
26 14 11 11 11 9 12 16 8 8 11 13 8 5 6 6 10 7 2 5 3 4 2 3 2 9 14 15 21 20 19 18 20 23 26 31 37 39 39 41 39 40 40 41
13 14 11 12 11 13 12 11 7 11 9 9 5 6 5 4 6 4 5 1 4 2 2 4 3 1 17 15 14 17 11 6 15 19 26 31 34 37 36 34 34 33 35 35
12 12 11 15 14 10 11 18 6 10 8 3 3 4 3 4 5 4 3 5 1 3 3 5 19 9 15 15 16 18 10 14 18 21 25 31 32 32 32 27 26 26 31 33
10 12 7 8 9 10 10 15 11 13 9 2 3 2 3 4 3 5 5 2 4 4 8 21 28 22 18 16 15 16 16 19 18 23 28 31 30 29 29 26 22 23 25 27
9 12 22 14 5 11 12 16 13 17 7 3 3 4 1 4 5 4 2 1 3 6 15 45 35 31 23 22 20 19 21 21 21 24 27 26 25 24 26 29 30 31 29 28
Wind_Direction_850mb
345 345 347 349 348 349 354 355 340 346 359 41 37 353 321 311 303 343 302 289 273 269 297 287 301 264 243 256 307 274 260 279 276 274 270 266 266 261 249 249 214 235 262 270
343 345 345 349 350 352 351 346 311 345 16 44 1 330 317 297 317 332 327 304 301 304 294 295 266 274 278 292 287 262 215 242 292 291 158 127 213 247 240 251 235 233 256 226
340 343 342 347 350 354 353 353 340 351 50 97 13 341 327 336 318 305 301 289 291 302 286 278 280 280 296 294 277 262 254 214 228 255 271 286 276 281 271 240 257 277 256 266
337 338 339 345 347 355 4 13 52 5 331 355 335 318 286 329 350 295 304 277 242 320 294 307 252 287 287 272 278 280 229 271 262 260 274 279 270 267 267 259 257 250 272 279
332 333 338 341 346 357 11 16 2 348 300 305 314 340 314 317 328 296 298 255 301 309 278 272 289 295 300 278 300 241 249 272 296 281 272 264 266 266 263 252 254 253 255 262
330 332 335 337 346 360 27 17 343 336 298 318 310 327 331 306 317 292 264 289 307 299 294 299 289 285 278 252 260 285 270 268 279 278 317 305 265 299 290 257 257 255 248 254
326 327 331 335 348 359 18 13 10 357 287 280 296 298 301 295 299 275 282 293 278 282 310 307 292 263 245 242 238 212 259 273 250 292 321 273 97 27 346 316 297 319 247 258
320 322 329 330 339 346 9 357 354 330 292 290 294 305 297 303 297 278 278 291 284 304 310 313 326 343 249 242 343 224 238 279 281 285 285 282 36 353 330 341 313 348 327 336
314 318 324 321 325 338 347 331 332 290 296 256 287 307 299 309 326 321 275 315 329 324 292 330 335 338 313 326 317 234 303 252 271 296 287 293 8 344 329 318 201 349 328 311
310 312 319 317 323 322 330 303 299 266 270 278 286 280 302 293 298 273 297 335 324 351 324 318 330 310 323 321 317 336 322 324 296 302 279 284 5 335 319 9 322 314 306 298
298 307 315 309 312 290 298 298 302 266 259 286 262 262 259 276 267 267 315 329 3 303 349 344 346 308 338 295 283 340 319 330 333 318 315 338 348 329 353 304 308 321 328 321
293 302 308 299 303 294 266 283 292 288 271 273 294 283 268 257 269 274 288 260 297 270 314 350 305 310 316 312 321 5 344 358 307 328 324 307 317 318 345 346 347 354 357 31
288 300 299 289 299 294 261 267 282 299 288 310 288 261 308 312 294 274 232 265 249 257 280 300 278 288 325 320 348 306 297 32 270 304 22 322 337 2 3 7 19 26 40 59
283 290 286 286 293 298 279 269 269 261 291 287 282 309 304 300 292 281 282 278 266 282 299 270 277 278 60 318 315 313 322 315 314 272 309 333 1 9 16 31 38 46 58 64
278 282 270 277 286 291 284 288 277 241 237 289 294 310 180 305 304 307 300 293 272 273 254 228 262 319 334 337 259 25 332 326 347 320 321 357 4 18 30 45 44 53 65 67
263 261 259 271 276 273 305 293 226 215 247 291 297 305 267 331 341 326 318 300 265 243 249 260 75 348 333 330 335 293 340 338 338 291 336 24 35 41 50 55 56 63 67 73
247 244 257 259 255 254 228 179 163 239 295 262 289 287 283 321 329 322 297 296 260 275 292 343 130 22 8 21 355 318 338 353 19 18 355 45 51 45 61 68 68 76 80 83
226 234 245 245 236 257 262 170 203 213 245 255 273 278 299 325 304 313 332 314 289 285 354 48 25 15 346 12 324 349 356 23 57 68 81 85 79 83 81 82 80 77 76 83
208 220 226 221 233 227 186 187 233 251 220 269 248 271 286 317 285 285 292 283 266 320 147 64 101 1 24 298 326 2 18 57 82 88 90 92 83 85 87 87 82 85 86 92
195 192 179 223 199 158 161 208 203 189 214 229 250 246 265 296 301 258 275 249 258 213 78 108 59 174 305 356 7 79 54 91 102 80 79 95 92 103 100 96 94 98 99 99
177 178 207 180 157 167 183 204 210 183 223 217 230 230 265 269 237 292 226 300 317 262 116 110 117 22 55 12 108 107 96 110 101 96 101 104 105 113 110 102 99 98 99 98
174 173 154 165 188 185 205 199 199 213 236 207 205 233 226 264 226 248 214 275 332 274 121 122 87 74 51 40 129 118 100 102 98 101 97 100 105 110 110 108 105 104 102 104
157 184 173 197 177 181 207 200 191 207 204 199 198 261 233 233 226 242 241 266 262 235 62 73 94 68 114 100 135 129 110 79 98 96 100 110 114 116 114 110 107 104 103 105
171 163 201 220 191 210 192 203 185 199 183 175 205 257 245 231 227 207 236 198 150 240 176 83 190 270 159 147 161 175 161 101 129 118 116 119 120 119 118 119 120 119 114 113
176 180 225 213 218 210 201 209 237 195 181 187 217 215 240 243 256 222 310 215 357 329 61 176 181 236 174 176 186 193 173 146 134 133 133 132 130 127 123 122 124 127 128 128
210 215 234 235 198 195 190 193 201 181 180 166 140 154 217 245 259 232 223 256 124 176 145 165 177 167 176 170 146 152 160 154 144 141 142 140 137 133 130 127 127 130 129 129
216 227 216 208 244 177 164 190 187 175 172 186 165 205 185 301 244 221 185 350 101 167 169 184 186 181 151 163 159 152 163 163 155 147 146 146 145 140 136 133 131 131 129 125